CST,Max TemperatureF,Mean TemperatureF,Min TemperatureF,Max Dew PointF,MeanDew PointF,Min DewpointF,Max Humidity, Mean Humidity, Min Humidity, Max Sea Level PressureIn, Mean Sea Level PressureIn, Min Sea Level PressureIn, Max VisibilityMiles, Mean VisibilityMiles, Min VisibilityMiles, Max Wind SpeedMPH, Mean Wind SpeedMPH, Max Gust SpeedMPH,PrecipitationIn, CloudCover, Events, WindDirDegrees
2012-12-1,73,58,39,28,23,19,61,30,13,30.03,29.92,29.84,10,10,10,23,13,29,0.00,0,,297
2012-12-2,75,54,33,30,24,16,75,35,11,30.05,29.97,29.84,10,10,10,31,8,37,0.00,0,,235
2012-12-3,69,58,46,32,25,18,57,31,18,30.17,29.93,29.76,10,10,10,28,17,34,0.00,1,,334
2012-12-4,59,46,32,32,20,9,75,43,14,30.40,30.30,30.16,10,10,7,12,6,,0.00,1,,40
2012-12-5,59,46,32,21,16,12,44,29,20,30.30,30.16,29.96,10,10,4,24,14,29,0.00,0,,182
2012-12-6,60,48,35,28,26,23,70,43,27,29.94,29.87,29.80,10,10,10,26,15,30,0.00,0,,358
2012-12-7,57,44,30,27,24,21,75,56,31,29.94,29.88,29.80,10,10,10,10,6,,0.00,0,,327
2012-12-8,48,37,26,37,32,25,100,85,62,29.94,29.83,29.70,10,7,0,17,9,20,0.00,2,Fog,151
2012-12-9,37,29,21,36,16,3,100,57,28,30.20,30.01,29.72,10,9,1,31,18,41,0.00,5,Snow,360
2012-12-10,37,22,6,10,4,-6,73,48,16,30.19,30.05,29.94,10,10,10,16,11,21,0.00,0,,274
2012-12-11,44,32,19,14,10,3,74,46,21,30.10,30.04,29.97,10,10,10,14,8,,0.00,1,,217
2012-12-12,59,41,23,12,11,9,59,34,15,30.07,30.00,29.95,10,10,10,25,15,33,0.00,0,,196
2012-12-13,68,49,30,32,13,9,57,28,11,30.09,30.03,29.99,10,10,10,21,13,25,0.00,0,,211
2012-12-14,51,46,41,50,40,32,94,79,61,30.01,29.79,29.57,10,10,1,38,17,50,0.00,4,Rain-Thunderstorm,189
2012-12-15,57,46,35,32,28,25,75,53,29,29.80,29.74,29.65,10,10,10,33,20,43,0.00,0,,261
2012-12-16,50,39,28,32,28,21,100,67,32,29.84,29.74,29.70,10,8,0,28,14,34,0.00,1,Fog,303
2012-12-17,53,38,24,30,25,14,100,68,21,29.87,29.81,29.73,10,7,0,18,8,20,0.00,2,Fog-Snow,267
2012-12-18,55,44,33,27,23,18,75,48,24,29.88,29.78,29.73,10,10,10,20,12,24,0.00,0,,210
2012-12-19,66,46,26,28,24,16,75,51,17,30.03,29.67,29.45,10,9,1,41,17,54,0.00,3,,241
2012-12-20,44,32,21,18,4,-6,69,35,13,30.35,30.28,30.08,10,10,10,30,20,40,0.00,0,,293
2012-12-21,64,46,28,5,2,-6,34,21,6,30.33,30.23,30.14,10,10,10,21,13,25,0.00,0,,241
2012-12-22,55,44,32,10,4,1,38,22,12,30.14,30.02,29.93,10,10,10,20,13,21,0.00,0,,258
2012-12-23,51,36,21,19,16,9,80,51,21,29.99,29.93,29.85,10,10,10,13,8,,0.00,0,,320
2012-12-24,44,34,24,19,17,14,69,53,29,30.01,29.88,29.75,10,10,10,22,10,28,0.00,1,,133
2012-12-25,26,17,8,18,12,5,93,83,68,30.24,30.02,29.77,10,4,0,30,20,39,0.00,7,Snow,11
2012-12-26,30,16,1,14,8,-4,92,73,51,30.21,30.05,29.83,10,9,1,22,10,29,0.00,1,Snow,213
2012-12-27,32,24,17,21,16,12,93,80,60,29.90,29.79,29.73,10,10,7,22,13,26,0.00,1,,8
2012-12-28,32,21,10,19,15,7,93,75,55,30.17,30.02,29.90,10,10,7,16,11,20,0.00,2,,327
2012-12-29,42,28,15,19,14,10,86,59,31,30.37,30.26,30.17,10,10,10,14,8,,0.00,0,,244
2012-12-30,37,32,26,21,15,14,64,49,38,30.23,30.11,30.00,10,10,7,28,15,33,0.00,1,,190
2012-12-31,32,26,19,32,26,18,100,92,75,30.11,29.96,29.86,10,7,1,14,6,,0.00,8,Rain-Snow,318